Regional Weather Roundup
Issued by NWS

Home | Current Version | Previous Version | Graphics & Text | Print | Product List | Glossary Off
Versions: 1 2 3 4 5 6 7 8 9 10 11 12 13 14 15 16 17 18 19 20 21 22 23 24 25 26 27 28 29 30 31 32 33 34 35 36 37 38 39 40 41 42 43 44 45 46 47 48 49 50

170
ASUS43 KDTX 240401
RWRMI
MICHIGAN HOURLY REGIONAL WEATHER ROUNDUP
NATIONAL WEATHER SERVICE DETROIT/PONTIAC MI
1200 AM EDT TUE MAY 24 2016

NOTE: "FAIR" INDICATES FEW OR NO CLOUDS BELOW 12,000 FEET WITH NO
SIGNIFICANT WEATHER AND/OR OBSTRUCTION TO VISIBILITY.

MIZ047>049-052>055-059>063-066>070-074>076-081>083-240500-
SOUTHEAST LOWER MICHIGAN

CITY           SKY/WX    TMP DP  RH WIND       PRES   REMARKS
ADRIAN         CLEAR     54  46  74 CALM      30.02S
ALMA           CLEAR     53  43  67 CALM      29.98S
ANN ARBOR      CLEAR     49  46  90 CALM      30.01F
BAD AXE        CLEAR     50  42  74 S3        29.99S
CARO           CLEAR     47  44  88 CALM      29.98S
DETROIT CITY   CLEAR     61  43  51 SW3       30.01S
DETROIT        PTCLDY    60  49  66 S5        30.02F
FLINT          CLEAR     60  38  43 S5        29.99F
GROSSE ILE     CLEAR     59  55  88 CALM      30.01S
HILLSDALE      CLEAR     55  39  54 CALM      30.02F
HOWELL         CLEAR     58  35  43 SE3       30.00F

CITY           SKY/WX    TMP DP  RH WIND       PRES   REMARKS
JACKSON        CLEAR     54  41  61 SW3       30.01F
LAMBERTVILLE   CLEAR     56  50  82 CALM      30.02F
LANSING        CLEAR     59  40  49 S3        29.99F
LAPEER         FAIR      50  45  83 NE3       30.00F
MASON          CLEAR     60  37  43 CALM      30.00F
MONROE         CLEAR     53  51  94 CALM      30.01F
MT. CLEMENS    CLEAR     57  45  64 CALM      30.00S
PONTIAC        CLEAR     60  44  55 CALM      30.00F
PORT HOPE        N/A     61  41  47 VRB3      29.95F
PORT HURON     CLEAR     54  48  82 CALM      30.01S
TRI CITIES     CLEAR     65  39  38 S8        29.97F
MIDLAND        FAIR      52  45  77 CALM      29.96F
TROY           CLEAR     64  43  46 SW5       30.03F
SAGINAW HB     CLEAR     59  37  44 S6        29.97F
$$
MIZ043>046-050>051-056>058-064>065-071>073-077>080-240500-
SOUTHWEST LOWER MICHIGAN

CITY           SKY/WX    TMP DP  RH WIND       PRES   REMARKS
BATTLE CREEK   CLEAR     57  36  45 S6        30.00F
BENTON HARBOR  CLEAR     62  38  40 SE7       29.96S
BIG RAPIDS     CLEAR     54  45  69 CALM      29.97S
COLDWATER      CLEAR     53  41  64 CALM      30.00F
FREMONT        FAIR      55  44  66 CALM      29.96R
HOLLAND        CLEAR     59  45  59 CALM      29.97R
GRAND RAPIDS   CLEAR     59  46  62 S7        29.98S
IONIA          FAIR      59  40  50 S5        29.98S
KALAMAZOO      CLEAR     63  35  35 SE5       29.99F
LUDINGTON      CLEAR     49  40  72 E3        29.94S
MARSHALL       CLEAR     59  38  45 CALM      29.99F
MOUNT PLEASANT CLEAR     56  46  69 CALM      29.97S
MUSKEGON       CLEAR     56  43  61 SE3       29.95S
SOUTH HAVEN    CLEAR     61  39  45 SE3       29.96F
$$
MIZ016>042-240500-
NORTHERN LOWER MICHIGAN

CITY           SKY/WX    TMP DP  RH WIND       PRES   REMARKS
ALPENA         CLEAR     52  46  80 CALM      29.94S
BEAVER ISLAND  CLEAR     65  31  28 S9        29.91F
BELLAIRE       CLEAR     52  47  83 CALM      29.94S
CADILLAC       CLEAR     51  40  66 CALM      29.97S
CHARLEVOIX     CLEAR     55  43  63 SE6       29.96S
FRANKFORT      CLEAR     60  38  43 CALM      29.92S
GAYLORD        CLEAR     59  45  59 W5        29.97R
GRAYLING       CLEAR     52  43  71 CALM      29.98S
HARBOR SPRINGS CLEAR     53  41  63 NE3       29.94S
HOUGHTON LAKE  CLEAR     54  47  77 CALM      29.98S
MANISTEE       CLEAR     54  36  50 E5        29.94S
OSCODA         CLEAR     54  43  68 SW6       29.95S
PELLSTON       CLEAR     47  38  71 CALM      29.94R
ROGERS CITY    CLEAR     50  44  79 CALM      29.95R
TRAVERSE CITY  CLEAR     65  36  34 CALM      29.93R
$$
MIZ007>008-015-240500-
EASTERN UPPER MICHIGAN

CITY           SKY/WX    TMP DP  RH WIND       PRES   REMARKS
KINROSS          N/A     57  37  47 S5        29.94R
MACKINAC ISLAN CLEAR     51  42  72 SE6       29.94R
NEWBERRY       CLEAR     53  39  59 S9        29.90S
S. S. MARIE    CLEAR     56  39  53 E5        29.93S
MUNISING         N/A     62  38  40 S8        29.86S
$$
MIZ004>006-011>014-085-240500-
CENTRAL UPPER MICHIGAN

CITY           SKY/WX    TMP DP  RH WIND       PRES   REMARKS
MANISTIQUE     PTCLDY    54  41  60 S8        29.90R
ESCANABA       CLOUDY    59  45  58 S5        29.87F
MENOMINEE      CLOUDY    61  46  59 SW5       29.88S
SAWYER-GWINN   CLOUDY    62  44  51 S10       29.86S
$$
MIZ001>003-009>011-084-240500-
WESTERN UPPER MICHIGAN

CITY           SKY/WX    TMP DP  RH WIND       PRES   REMARKS
IRON MOUNTAIN  CLOUDY    65  47  52 SE8       29.84S
HOUGHTON       CLOUDY    64  59  83 W12       29.82R
COPPER HARBOR    N/A     69  58  67 VRB5G16   29.80R
IRONWOOD       CLOUDY    64  63  94 SW8       29.82R
$$

ABBREVIATIONS USED IN REMARKS
   TC - TEMPERATURE IN CELSIUS
  WCI - WIND CHILL INDEX
   HX - HEAT INDEX
  VSB - VISIBILITY





USA.gov is the U.S. government's official web portal to all federal, state and local government web resources and services.